Flag for Germany Weather past 2 weeks in Viersen, North Rhine-Westphalia, Germany

Now
77 °F

Passing clouds.


Feels Like: 79 °F
Forecast: 57 / 64 °F
Wind: 8 mph from West

Location: Monchengladbach Airport

Current Time: Jul 7, 2015 at 7:47:38 PM

Latest Report: Jul 7, 2015 at 7:20 PM


Visibility: N/A

Pressure: 29.74 "Hg

Humidity: 51%

Dew point: 57 °F

Location of ViersenLocation

Historic Weather in Viersen — Graph

°F

Viersen temperature yesterday

Maximum temperature yesterday: 77 °F (at 3:20 PM)
Minimum temperature yesterday: 61 °F (at 7:50 AM)
Average temperature yesterday: 72 °F

Past Weeks' High & Low Weather Summary

 TemperatureHumidityPressure
High99 °F (Jul 2, 3:50 PM)100% (Jun 22, 7:50 PM)30.24 "Hg (Jun 22, 7:50 PM)
Low50 °F (Jun 22, 8:20 PM)29% (Jun 30, 5:50 PM)29.71 "Hg (Jun 22, 6:20 PM)
Average75 °F56%30.07 "Hg
* Reported Jun 22 6:20 PM — Jul 7 6:20 PM, Viersen, Weather by CustomWeather, © 2015

Note: Actual official high and low records may vary slightly from our data, if they occured in-between our weather recording intervals... More about our weather records

Advertising

Viersen weather history for previous 24 hours

 ConditionsComfort  
Time TempWeatherWind HumidityBarometerVisibility
6:20 PM
Tue, Jul 7
79 °FPassing clouds.10 mph45%29.74 "HgN/A
5:50 PM81 °FPassing clouds.8 mph45%29.74 "HgN/A
5:20 PM81 °FPassing clouds.8 mph48%29.74 "HgN/A
4:50 PM81 °FPassing clouds.8 mph48%29.74 "HgN/A
4:20 PM82 °FPassing clouds.7 mph42%29.74 "HgN/A
3:50 PM82 °FPassing clouds.9 mph40%29.77 "HgN/A
3:20 PM84 °FPassing clouds.10 mph40%29.74 "HgN/A
2:50 PM84 °FPassing clouds.12 mph43%29.74 "HgN/A
2:20 PM84 °FPassing clouds.8 mph43%29.77 "HgN/A
1:50 PM84 °FPassing clouds.7 mph43%29.77 "HgN/A
1:20 PM86 °FSunny.6 mph40%29.77 "Hg10 mi
12:50 PM84 °FPassing clouds.6 mph45%29.80 "HgN/A
12:20 PM84 °FPassing clouds.6 mph43%29.80 "HgN/A
11:50 AM82 °FPassing clouds.7 mph45%29.83 "HgN/A
11:20 AM81 °FSunny.7 mph45%29.83 "Hg10 mi
10:50 AM79 °FPassing clouds.6 mph48%29.86 "HgN/A
10:20 AM77 °FPassing clouds.6 mph54%29.86 "HgN/A
9:50 AM75 °FPassing clouds.6 mph57%29.86 "HgN/A
9:20 AM72 °FPassing clouds.5 mph65%29.89 "HgN/A
8:50 AM70 °FPassing clouds.5 mph69%29.89 "HgN/A
8:20 AM68 °FPassing clouds.5 mph73%29.92 "HgN/A
7:50 AM66 °FSunny.6 mph73%29.92 "Hg10 mi
8:20 PM
Mon, Jul 6
77 °FClear.5 mph39%30.07 "Hg10 mi
7:50 PM77 °FPassing clouds.5 mph34%30.07 "HgN/A
7:20 PM77 °FPassing clouds.6 mph42%30.09 "HgN/A
Weather by CustomWeather, © 2015

See weather overviewHow to use our weather pages